Flag Weather past 2 weeks in Panama, Panama

Now
81 °F

Passing clouds.


Feels Like: 85 °F
Forecast: 78 / 85 °F
Wind: 5 mph from North

Location: Marcos A. Gelabert

Current Time: Nov 28, 2014 at 10:33:17 PM

Latest Report: Nov 28, 2014 at 10:00 PM


Visibility: N/A

Pressure: 29.83 "Hg

Humidity: 79%

Dew point: 73 °F

Location of PanamaLocation

Historic Weather in Panama — Graph

°F

Panama temperature yesterday

Maximum temperature yesterday: 88 °F (at 11:00 AM)
Minimum temperature yesterday: 75 °F (at 6:00 AM)
Average temperature yesterday: 82 °F

Past Weeks' High & Low Weather Summary

 TemperatureHumidityPressure
High91 °F (Nov 28, 12:00 PM)100% (Nov 14, 6:00 AM)29.95 "Hg (Nov 14, 6:00 AM)
Low73 °F (Nov 14, 6:00 AM)46% (Nov 28, 2:00 PM)28.72 "Hg (Nov 25, 1:00 PM)
Average82 °F81%29.84 "Hg
* Reported Nov 13 9:00 PM — Nov 28 9:00 PM, Panama, Weather by CustomWeather, © 2014

Note: Actual official high and low records may vary slightly from our data, if they occured in-between our weather recording intervals... More about our weather records

Advertising

Panama weather history for previous 24 hours

 ConditionsComfort  
Time TempWeatherWind HumidityBarometerVisibility
9:00 PM
Nov 28
81 °FPassing clouds.5 mph79%29.80 "HgN/A
8:00 PM81 °FPassing clouds.9 mph74%29.80 "HgN/A
7:00 PM82 °FPassing clouds.9 mph70%29.77 "HgN/A
6:12 PM84 °FPassing clouds.9 mph66%29.77 "HgN/A
6:00 PM84 °FPassing clouds.9 mphN/A29.77 "HgN/A
5:00 PM88 °FPassing clouds.14 mph52%29.74 "HgN/A
4:00 PM90 °FScattered clouds.14 mph49%29.74 "HgN/A
3:00 PM91 °FScattered clouds.14 mph46%29.74 "HgN/A
2:00 PM91 °FScattered clouds.14 mph46%29.77 "HgN/A
1:00 PM90 °FScattered clouds.9 mph52%29.80 "HgN/A
12:00 PM91 °FScattered clouds.13 mph49%29.86 "HgN/A
11:00 AM88 °FPassing clouds.7 mph59%29.86 "HgN/A
10:00 AM88 °FPassing clouds.6 mph59%29.86 "HgN/A
9:00 AM84 °FClear.2 mph79%29.86 "Hg6 mi
8:00 AM81 °FClear.3 mph89%29.86 "Hg6 mi
7:00 AM77 °FClear.No wind94%29.83 "Hg6 mi
6:00 AM75 °FPassing clouds.No wind94%29.80 "Hg6 mi
10:00 PM
Nov 27
79 °FPassing clouds.1 mph84%29.83 "HgN/A
Weather by CustomWeather, © 2014

See weather overviewHow to use our weather pages